DW7889 Weather Reports


time (UTC)temp
C
wind
direction
speed
KPH
gust
KPH
rain 1hr
cm
rain 24hr
cm
rain mn
cm
humidity
%
barometer
mb
20260507160049 27 15 20.9 51.5 0.00 0.00 0.00 52 1008.1
20260507155529 27 313 29.0 51.5 0.00 0.00 0.00 53 1008.2
20260507155031 27 360 24.1 48.3 0.00 0.00 0.00 54 1008.1
20260507154535 27 14 19.3 38.6 0.00 0.00 0.00 57 1008.2
20260507154036 26 354 22.5 45.1 0.00 0.00 0.00 56 1008.4
20260507153538 26 30 25.7 46.7 0.00 0.00 0.00 57 1008.7
20260507153039 26 23 20.9 43.5 0.00 0.00 0.00 59 1008.9
20260507152538 26 320 17.7 37.0 0.00 0.00 0.00 60 1008.9
20260507152040 26 309 24.1 43.5 0.00 0.00 0.00 61 1009.0
20260507151541 26 11 22.5 46.7 0.00 0.00 0.00 62 1009.2
20260507151040 26 360 24.1 46.7 0.00 0.00 0.00 62 1009.3
20260507150604 26 7 20.9 40.2 0.00 0.00 0.00 62 1009.5
20260507150048 25 330 24.1 40.2 0.00 0.00 0.00 63 1009.7
20260507145531 25 311 20.9 38.6 0.00 0.00 0.00 64 1009.9
20260507145037 25 16 17.7 40.2 0.00 0.00 0.00 66 1009.9
20260507144539 25 357 27.4 40.2 0.00 0.00 0.00 65 1010.0
20260507144039 25 3 20.9 51.5 0.00 0.00 0.00 66 1010.2
20260507143602 25 326 14.5 38.6 0.00 0.00 0.00 67 1010.4
20260507143043 25 34 19.3 38.6 0.00 0.00 0.00 67 1010.6
20260507142546 24 328 22.5 41.8 0.00 0.00 0.00 69 1010.6
20260507142049 24 352 20.9 41.8 0.00 0.00 0.00 69 1010.7
20260507141038 23 8 20.9 41.8 0.00 0.00 0.00 69 1011.1
20260507140539 23 321 19.3 40.2 0.00 0.00 0.00 71 1011.3
20260507140039 23 359 22.5 35.4 0.00 0.00 0.00 71 1011.3
20260507135542 23 6 19.3 48.3 0.00 0.00 0.00 73 1011.4
20260507135044 22 8 24.1 48.3 0.00 0.00 0.00 73 1011.4
20260507134544 22 344 19.3 41.8 0.00 0.00 0.00 74 1011.5
20260507134106 22 348 19.3 32.2 0.00 0.00 0.00 74 1011.6
20260507133604 22 17 20.9 40.2 0.00 0.00 0.00 74 1011.7
20260507133104 22 30 19.3 37.0 0.00 0.00 0.00 73 1011.8
20260507132604 22 13 22.5 37.0 0.00 0.00 0.00 73 1011.9
20260507132044 22 11 27.4 38.6 0.00 0.00 0.00 73 1012.0
20260507131530 22 11 20.9 38.6 0.00 0.00 0.00 73 1012.1
20260507131031 22 9 19.3 33.8 0.00 0.00 0.00 74 1012.4
20260507130533 22 331 19.3 0.0 0.00 0.00 0.00 74 1012.2
20260507130034 22 25 16.1 32.2 0.00 0.00 0.00 75 1012.4
20260507125534 22 359 20.9 32.2 0.00 0.00 0.00 75 1012.5
20260507125035 22 354 19.3 40.2 0.00 0.00 0.00 75 1012.5
20260507124538 22 14 20.9 40.2 0.00 0.00 0.00 75 1012.6
20260507124037 22 11 20.9 32.2 0.00 0.00 0.00 74 1012.7
20260507123540 22 22 17.7 35.4 0.00 0.00 0.00 74 1012.8
20260507123040 22 347 20.9 35.4 0.00 0.00 0.00 74 1012.9
20260507122541 22 354 14.5 32.2 0.00 0.00 0.00 74 1012.8
20260507122039 22 360 19.3 33.8 0.00 0.00 0.00 74 1012.8
20260507121543 22 348 16.1 33.8 0.00 0.00 0.00 75 1012.8
20260507121026 22 360 14.5 32.2 0.00 0.00 0.00 75 1012.8
20260507120530 22 15 20.9 33.8 0.00 0.00 0.00 76 1012.8
20260507120056 22 359 16.1 40.2 0.00 0.00 0.00 76 1012.6
20260507115525 22 1 24.1 40.2 0.00 0.00 0.00 76 1012.6
20260507115030 22 355 20.9 35.4 0.00 0.00 0.00 76 1012.5
20260507114531 22 326 20.9 37.0 0.00 0.00 0.00 76 1012.5
20260507114035 21 8 22.5 37.0 0.00 0.00 0.00 76 1012.6
20260507113539 21 348 19.3 37.0 0.00 0.00 0.00 77 1012.5
20260507113040 21 1 16.1 29.0 0.00 0.00 0.00 77 1012.6
20260507112526 21 1 17.7 38.6 0.00 0.00 0.00 77 1012.5
20260507112051 21 15 17.7 38.6 0.00 0.00 0.00 77 1012.5
20260507111554 21 16 19.3 35.4 0.00 0.00 0.00 77 1012.4
20260507111054 21 11 17.7 35.4 0.00 0.00 0.00 77 1012.3
20260507110537 21 12 16.1 32.2 0.00 0.00 0.00 77 1012.3
20260507110038 21 9 20.9 32.2 0.00 0.00 0.00 77 1012.3
20260507105609 21 8 19.3 32.2 0.00 0.00 0.00 77 1012.1
20260507105043 21 297 17.7 32.2 0.00 0.00 0.00 77 1012.0
20260507104605 21 349 19.3 32.2 0.00 0.00 0.00 77 1012.0
20260507104045 21 5 20.9 32.2 0.00 0.00 0.00 77 1012.0
20260507103535 21 360 16.1 33.8 0.00 0.00 0.00 78 1012.1
20260507103040 21 1 22.5 37.0 0.00 0.00 0.00 78 1012.0
20260507102542 21 22 19.3 37.0 0.00 0.00 0.00 79 1012.1
20260507102104 21 355 19.3 33.8 0.00 0.00 0.00 79 1012.0
20260507101526 21 1 17.7 35.4 0.00 0.00 0.00 80 1012.0
20260507101030 21 25 19.3 35.4 0.00 0.00 0.00 80 1011.9
20260507100551 21 352 17.7 33.8 0.00 0.00 0.00 80 1012.0
20260507100031 21 28 19.3 37.0 0.00 0.00 0.00 80 1012.1
20260507095533 21 347 19.3 37.0 0.00 0.00 0.00 80 1012.0
20260507095032 21 353 19.3 33.8 0.00 0.00 0.00 80 1012.2
20260507094534 21 1 17.7 32.2 0.00 0.00 0.00 80 1012.1
20260507094040 21 359 17.7 30.6 0.00 0.00 0.00 80 1012.0
20260507093540 21 21 20.9 33.8 0.00 0.00 0.00 80 1012.0
20260507093043 21 1 22.5 37.0 0.00 0.00 0.00 80 1012.0
20260507092533 21 360 19.3 32.2 0.00 0.00 0.00 80 1012.0
20260507092039 21 1 22.5 37.0 0.00 0.00 0.00 80 1012.0
20260507091542 21 1 16.1 37.0 0.00 0.00 0.00 80 1012.1
20260507091047 21 357 19.3 33.8 0.00 0.00 0.00 80 1012.2
20260507090528 21 27 17.7 33.8 0.00 0.00 0.00 80 1012.2
20260507090035 21 17 20.9 32.2 0.00 0.00 0.00 81 1012.3
20260507085537 21 8 16.1 30.6 0.00 0.00 0.00 81 1012.3
20260507085040 21 1 19.3 30.6 0.00 0.00 0.00 81 1012.3
20260507084542 21 1 14.5 30.6 0.00 0.00 0.00 82 1012.3
20260507084041 21 6 17.7 32.2 0.00 0.00 0.00 82 1012.3
20260507083604 21 359 16.1 32.2 0.00 0.00 0.00 82 1012.4
20260507083026 21 360 16.1 38.6 0.00 0.00 0.00 82 1012.5
20260507082530 21 330 19.3 33.8 0.00 0.00 0.00 82 1012.5
20260507082054 21 1 19.3 30.6 0.00 0.00 0.00 82 1012.5
20260507081539 21 358 16.1 29.0 0.00 0.00 0.00 83 1012.5
20260507081044 21 359 16.1 30.6 0.00 0.00 0.00 83 1012.7
20260507080528 21 20 17.7 30.6 0.00 0.00 0.00 83 1012.7
20260507080034 21 360 16.1 30.6 0.00 0.00 0.00 83 1012.7
20260507075536 21 12 17.7 30.6 0.00 0.00 0.00 83 1012.8
20260507075042 21 13 17.7 30.6 0.00 0.00 0.00 84 1012.8
20260507074545 21 359 17.7 27.4 0.00 0.00 0.00 83 1012.9
20260507074028 21 360 16.1 30.6 0.00 0.00 0.00 84 1013.0
20260507073531 21 308 16.1 30.6 0.00 0.00 0.00 83 1013.0
20260507073035 21 1 16.1 27.4 0.00 0.00 0.00 83 1013.0
20260507072539 21 352 16.1 25.7 0.00 0.00 0.00 83 1013.0
20260507072101 21 15 17.7 27.4 0.00 0.00 0.00 83 1013.0
20260507071527 21 360 17.7 27.4 0.00 0.00 0.00 83 1013.3
20260507071033 21 12 14.5 30.6 0.00 0.00 0.00 82 1013.4
20260507070537 21 14 17.7 30.6 0.00 0.00 0.00 82 1013.5
20260507070043 21 340 14.5 29.0 0.00 0.00 0.00 82 1013.5
20260507065546 21 1 14.5 22.5 0.00 0.00 0.00 81 1013.6
20260507065030 20 1 12.9 19.3 0.00 0.00 0.00 81 1013.7
20260507064534 20 359 11.3 20.9 0.00 0.00 0.00 81 1013.8
20260507064036 20 1 11.3 20.9 0.00 0.00 0.00 81 1013.9
20260507063543 20 12 11.3 16.1 0.00 0.00 0.00 81 1014.0
20260507063023 20 302 8.0 17.7 0.00 0.00 0.00 81 1014.1
20260507062530 20 347 8.0 17.7 0.00 0.00 0.00 81 1014.1
20260507062034 20 13 8.0 16.1 0.00 0.00 0.00 81 1014.1
20260507061535 20 8 6.4 16.1 0.00 0.00 0.00 82 1014.3
20260507061042 20 20 6.4 16.1 0.00 0.00 0.00 82 1014.3
20260507060526 20 350 8.0 16.1 0.00 0.00 0.00 82 1014.5
20260507060050 20 360 4.8 11.3 0.00 0.00 0.00 82 1014.7
20260507055532 20 345 6.4 11.3 0.00 0.00 0.00 82 1014.8
20260507055057 20 9 4.8 9.7 0.00 0.00 0.00 83 1014.8
20260507054542 20 359 4.8 9.7 0.00 0.00 0.00 83 1014.8
20260507054026 20 328 1.6 11.3 0.00 0.00 0.00 83 1014.9
20260507053531 20 347 4.8 11.3 0.00 0.00 0.00 83 1014.9
20260507053055 20 70 4.8 9.7 0.00 0.00 0.00 83 1015.1
20260507052600 20 17 3.2 12.9 0.00 0.00 0.00 83 1015.1
20260507052102 20 344 3.2 12.9 0.00 0.00 0.00 83 1015.3
20260507051544 20 359 3.2 8.0 0.00 0.00 0.00 83 1015.4
20260507051026 20 330 3.2 8.0 0.00 0.00 0.00 83 1015.5
20260507050529 20 331 3.2 9.7 0.00 0.00 0.00 83 1015.6
20260507050037 20 17 4.8 9.7 0.00 0.00 0.00 83 1015.6
20260507045541 20 44 4.8 12.9 0.00 0.00 0.00 82 1015.7
20260507045031 20 360 4.8 9.7 0.00 0.00 0.00 82 1015.8
20260507044536 20 359 3.2 9.7 0.00 0.00 0.00 82 1015.9
20260507044038 21 45 3.2 6.4 0.00 0.00 0.00 82 1016.0
20260507043540 21 356 1.6 6.4 0.00 0.00 0.00 82 1016.0
20260507043042 21 47 4.8 6.4 0.00 0.00 0.00 82 1016.1
20260507042545 21 14 1.6 6.4 0.00 0.00 0.00 82 1016.2
20260507042028 21 309 3.2 9.7 0.00 0.00 0.00 81 1016.2
20260507041535 21 329 3.2 9.7 0.00 0.00 0.00 81 1016.3
20260507041035 21 11 4.8 9.7 0.00 0.00 0.00 81 1016.3
20260507040540 21 359 4.8 14.5 0.00 0.00 0.00 81 1016.3
20260507040030 21 1 6.4 14.5 0.00 0.00 0.00 81 1016.3
20260507035551 21 1 4.8 12.9 0.00 0.00 0.00 81 1016.4
20260507035034 21 33 4.8 12.9 0.00 0.00 0.00 81 1016.4
20260507034539 21 50 4.8 12.9 0.00 0.00 0.00 81 1016.5
20260507034042 21 26 4.8 8.0 0.00 0.00 0.00 80 1016.6
20260507033546 21 49 4.8 9.7 0.00 0.00 0.00 80 1016.6
20260507033031 21 23 4.8 11.3 0.00 0.00 0.00 80 1016.8
20260507032533 21 351 4.8 11.3 0.00 0.00 0.00 80 1016.8
20260507032039 21 347 3.2 8.0 0.00 0.00 0.00 80 1016.8
20260507031542 21 359 1.6 9.7 0.00 0.00 0.00 80 1016.9
20260507031023 21 23 4.8 8.0 0.00 0.00 0.00 80 1017.0
20260507030529 21 333 4.8 8.0 0.00 0.00 0.00 80 1017.0
20260507030038 21 360 4.8 12.9 0.00 0.00 0.00 79 1017.0
20260507025540 21 20 6.4 12.9 0.00 0.00 0.00 79 1017.1
20260507025042 21 357 4.8 8.0 0.00 0.00 0.00 78 1017.1
20260507024526 21 340 4.8 9.7 0.00 0.00 0.00 78 1017.1
20260507024049 21 339 4.8 9.7 0.00 0.00 0.00 78 1017.1
20260507023531 21 354 4.8 8.0 0.00 0.00 0.00 77 1017.2
20260507023034 22 1 4.8 11.3 0.00 0.00 0.00 77 1017.2
20260507022537 22 1 6.4 11.3 0.00 0.00 0.00 77 1017.1
20260507022040 22 360 3.2 9.7 0.00 0.00 0.00 76 1017.3
20260507021547 22 320 4.8 9.7 0.00 0.00 0.00 76 1017.3
20260507021028 21 358 3.2 12.9 0.00 0.00 0.00 76 1017.3
20260507020531 21 34 3.2 12.9 0.00 0.00 0.00 76 1017.4
20260507020035 22 337 3.2 9.7 0.00 0.00 0.00 76 1017.5
20260507015535 22 12 4.8 11.3 0.00 0.00 0.00 75 1017.5
20260507015038 22 359 3.2 11.3 0.00 0.00 0.00 75 1017.6
20260507014526 22 357 3.2 8.0 0.00 0.00 0.00 75 1017.6
20260507014031 22 4 4.8 8.0 0.00 0.00 0.00 76 1017.7
20260507013535 22 358 4.8 8.0 0.00 0.00 0.00 75 1017.9
20260507013038 22 360 3.2 8.0 0.00 0.00 0.00 75 1017.9
20260507012541 22 1 4.8 8.0 0.00 0.00 0.00 75 1017.9
20260507012044 22 338 4.8 6.4 0.00 0.00 0.00 75 1017.9
20260507011528 22 1 3.2 6.4 0.00 0.00 0.00 75 1017.7
20260507010535 22 359 3.2 6.4 0.00 0.00 0.00 75 1017.8
20260507010040 22 339 3.2 8.0 0.00 0.00 0.00 75 1017.7
20260507005604 22 356 4.8 8.0 0.00 0.00 0.00 74 1017.8
20260507005044 22 359 3.2 6.4 0.00 0.00 0.00 74 1017.9
20260507004526 22 337 1.6 4.8 0.00 0.00 0.00 74 1017.9
20260507004037 22 356 1.6 4.8 0.00 0.00 0.00 74 1017.9
20260507003541 22 324 3.2 6.4 0.00 0.00 0.00 73 1017.9
20260507003043 22 334 3.2 6.4 0.00 0.00 0.00 73 1017.9
20260507002544 22 335 3.2 6.4 0.00 0.00 0.00 73 1017.9
20260507002046 22 359 4.8 6.4 0.00 0.00 0.00 73 1018.0
20260507001529 22 347 1.6 4.8 0.00 0.00 0.00 73 1018.0
20260507001032 22 1 0.0 0.0 0.00 0.00 0.00 72 1018.0
20260507000533 22 1 0.0 4.8 0.00 0.00 0.00 72 1018.1
20260507000039 22 1 1.6 4.8 0.00 0.00 0.00 72 1018.1
20260506235541 22 1 1.6 6.4 0.00 0.00 0.00 72 1018.1
20260506235102 22 329 3.2 6.4 0.00 0.00 0.00 72 1018.1
20260506234544 23 341 1.6 6.4 0.00 0.00 0.00 72 1018.0
20260506234047 23 349 3.2 4.8 0.00 0.00 0.00 72 1018.1
20260506233053 23 359 1.6 8.0 0.00 0.00 0.00 73 1018.1
20260506232537 23 348 4.8 8.0 0.00 0.00 0.00 73 1018.1
20260506232040 23 1 3.2 8.0 0.00 0.00 0.00 72 1018.1
20260506231542 23 5 3.2 6.4 0.00 0.00 0.00 73 1018.1
20260506231043 23 334 4.8 6.4 0.00 0.00 0.00 73 1018.1
20260506230525 23 359 3.2 4.8 0.00 0.00 0.00 73 1018.1
20260506230034 23 319 1.6 6.4 0.00 0.00 0.00 72 1018.1
20260506225535 23 338 3.2 8.0 0.00 0.00 0.00 72 1018.0
20260506225042 23 347 4.8 8.0 0.00 0.00 0.00 72 1018.0
20260506224542 23 359 3.2 4.8 0.00 0.00 0.00 72 1018.0
20260506224104 23 330 3.2 4.8 0.00 0.00 0.00 72 1018.0
20260506223546 23 4 1.6 3.2 0.00 0.00 0.00 72 1018.0
20260506223028 23 1 1.6 4.8 0.00 0.00 0.00 72 1018.0
20260506222551 23 8 1.6 6.4 0.00 0.00 0.00 72 1018.1
20260506222037 23 16 3.2 6.4 0.00 0.00 0.00 72 1018.0
20260506221541 23 359 1.6 3.2 0.00 0.00 0.00 72 1018.1
20260506221025 23 1 1.6 3.2 0.00 0.00 0.00 71 1018.1
20260506220530 23 359 0.0 0.0 0.00 0.00 0.00 71 1018.1
20260506220039 24 22 0.0 0.0 0.00 0.00 0.00 71 1018.0
20260506215543 24 353 0.0 0.0 0.00 0.00 0.00 70 1018.0
20260506215028 24 342 0.0 0.0 0.00 0.00 0.00 69 1018.1
20260506214531 24 359 0.0 0.0 0.00 0.00 0.00 69 1018.0
20260506214036 25 359 0.0 4.8 0.00 0.00 0.00 67 1018.1
20260506213536 25 359 1.6 4.8 0.00 0.00 0.00 67 1018.1
20260506213040 25 12 0.0 6.4 0.00 0.00 0.00 66 1018.1
20260506212542 25 33 1.6 6.4 0.00 0.00 0.00 66 1018.1
20260506212028 25 1 1.6 9.7 0.00 0.00 0.00 65 1018.0
20260506211530 25 360 4.8 9.7 0.00 0.00 0.00 65 1017.9
20260506211033 25 359 4.8 9.7 0.00 0.00 0.00 65 1018.0
20260506210535 25 356 4.8 11.3 0.00 0.00 0.00 64 1018.0
20260506210039 25 18 6.4 11.3 0.00 0.00 0.00 64 1018.1
20260506205542 25 21 6.4 8.0 0.00 0.00 0.00 65 1018.1
20260506205044 25 6 3.2 8.0 0.00 0.00 0.00 65 1018.0
20260506204549 26 340 3.2 8.0 0.00 0.00 0.00 65 1018.0
20260506204031 26 340 3.2 6.4 0.00 0.00 0.00 65 1018.0
20260506203536 26 1 3.2 6.4 0.00 0.00 0.00 64 1018.0
20260506203038 26 359 3.2 4.8 0.00 0.00 0.00 64 1018.0
20260506202541 26 355 3.2 8.0 0.00 0.00 0.00 63 1018.1
20260506202106 26 1 3.2 8.0 0.00 0.00 0.00 63 1018.2
20260506201530 26 354 4.8 11.3 0.00 0.00 0.00 62 1018.2
20260506201033 27 11 6.4 14.5 0.00 0.00 0.00 61 1018.2
20260506200557 27 359 8.0 14.5 0.00 0.00 0.00 61 1018.2
20260506200041 27 335 4.8 14.5 0.00 0.00 0.00 60 1018.3
20260506195545 27 1 4.8 14.5 0.00 0.00 0.00 60 1018.2
20260506195028 27 336 8.0 14.5 0.00 0.00 0.00 60 1018.3
20260506194552 27 1 4.8 11.3 0.00 0.00 0.00 60 1018.3
20260506194032 27 316 8.0 16.1 0.00 0.00 0.00 60 1018.3
20260506193538 27 349 9.7 16.1 0.00 0.00 0.00 59 1018.1
20260506193100 27 310 9.7 16.1 0.00 0.00 0.00 59 1018.1
20260506192601 27 359 11.3 16.1 0.00 0.00 0.00 60 1018.1
20260506192043 27 1 8.0 16.1 0.00 0.00 0.00 59 1018.2
20260506191527 27 11 9.7 16.1 0.00 0.00 0.00 59 1018.3
20260506191029 28 359 9.7 16.1 0.00 0.00 0.00 59 1018.2
20260506190531 28 359 6.4 14.5 0.00 0.00 0.00 60 1018.2
20260506190035 27 327 8.0 14.5 0.00 0.00 0.00 60 1018.1
20260506185536 27 337 4.8 14.5 0.00 0.00 0.00 61 1018.2
20260506185026 27 358 8.0 17.7 0.00 0.00 0.00 62 1018.3
20260506184530 27 27 9.7 17.7 0.00 0.00 0.00 61 1018.3
20260506184054 27 9 8.0 14.5 0.00 0.00 0.00 61 1018.3
20260506183536 27 10 6.4 14.5 0.00 0.00 0.00 61 1018.4
20260506183041 27 31 8.0 20.9 0.00 0.00 0.00 60 1018.4
20260506182542 27 14 9.7 20.9 0.00 0.00 0.00 59 1018.5
20260506182025 27 356 11.3 20.9 0.00 0.00 0.00 59 1018.4
20260506181531 27 39 11.3 20.9 0.00 0.00 0.00 60 1018.5
20260506181034 27 35 12.9 20.9 0.00 0.00 0.00 60 1018.5
20260506180557 28 18 8.0 19.3 0.00 0.00 0.00 59 1018.5
20260506180043 28 346 8.0 22.5 0.00 0.00 0.00 60 1018.6
20260506175546 28 13 14.5 22.5 0.00 0.00 0.00 60 1018.7
20260506175026 28 360 11.3 17.7 0.00 0.00 0.00 60 1018.7
20260506174536 28 360 9.7 17.7 0.00 0.00 0.00 60 1018.7
20260506174040 28 15 11.3 19.3 0.00 0.00 0.00 61 1018.8
20260506173542 27 2 14.5 25.7 0.00 0.00 0.00 60 1018.9
20260506173025 28 21 12.9 22.5 0.00 0.00 0.00 60 1018.9
20260506172549 28 307 8.0 17.7 0.00 0.00 0.00 62 1018.9
20260506172053 28 360 14.5 20.9 0.00 0.00 0.00 62 1018.9
20260506171538 28 41 11.3 20.9 0.00 0.00 0.00 61 1019.0
20260506171043 28 345 6.4 17.7 0.00 0.00 0.00 62 1019.1
20260506170529 27 25 6.4 20.9 0.00 0.00 0.00 64 1019.1
20260506170032 27 316 12.9 27.4 0.00 0.00 0.00 63 1019.2
20260506165534 27 325 17.7 27.4 0.00 0.00 0.00 63 1019.3
20260506165035 27 351 14.5 20.9 0.00 0.00 0.00 63 1019.4
20260506164534 27 1 11.3 20.9 0.00 0.00 0.00 64 1019.4
20260506164035 27 360 9.7 27.4 0.00 0.00 0.00 64 1019.6
20260506163541 27 354 14.5 27.4 0.00 0.00 0.00 63 1019.7
20260506163041 27 358 11.3 22.5 0.00 0.00 0.00 64 1019.7
20260506162541 27 333 9.7 24.1 0.00 0.00 0.00 64 1019.7
20260506162043 27 1 14.5 24.1 0.00 0.00 0.00 64 1019.9
20260506161544 27 353 14.5 24.1 0.00 0.00 0.00 64 1020.0
20260506161044 27 16 11.3 24.1 0.00 0.00 0.00 66 1020.1
20260506160526 26 14 14.5 24.1 0.00 0.00 0.00 65 1020.2